WZZ8PS LHBP-LFMN

Flight info

Callsign WZZ8PS
Flight time 1h 42m
Altitude 34000
Route GILEP DCT ZOLKU DCT SUBES DCT SUNIS DCT RADLY DCT MONFA/N0457F350 DCT BABAG DCT ARDAM DCT BIKTU DCT TOBGA/N0452F300 DCT DOBIM DCT AKUTI R16 KERIT
Aircraft A321/M-SDE3FGHIRWY/LB1

Departure

Time 2026-05-07 11:56
Airport Budapest Liszt Ferenc International Airport (LHBP)

Arrival

Time 2026-05-07 13:39
Airport Nice-Côte d'Azur Airport (LFMN)
Time Latitude Longitude Altitude Speed Heading
2026-05-07 11:20 47.43423 19.26616 458 ft 0 kts 222°
2026-05-07 11:46 47.43428 19.26622 457 ft 4 kts 224°
2026-05-07 11:46 47.43445 19.26652 455 ft 4 kts 245°
2026-05-07 11:46 47.43450 19.26687 456 ft 4 kts 285°
2026-05-07 11:47 47.43444 19.26707 454 ft 0 kts 312°
2026-05-07 11:50 47.43446 19.26705 456 ft 1 kts 312°
2026-05-07 11:50 47.43453 19.26693 456 ft 2 kts 312°
2026-05-07 11:50 47.43466 19.26673 455 ft 3 kts 313°
2026-05-07 11:50 47.43495 19.26626 458 ft 9 kts 313°
2026-05-07 11:51 47.43544 19.26547 458 ft 11 kts 312°
2026-05-07 11:51 47.43598 19.26459 457 ft 12 kts 312°
2026-05-07 11:51 47.43651 19.26373 457 ft 10 kts 311°
2026-05-07 11:51 47.43679 19.26278 457 ft 10 kts 274°
2026-05-07 11:52 47.43676 19.26166 457 ft 11 kts 268°
2026-05-07 11:52 47.43688 19.26051 457 ft 12 kts 297°
2026-05-07 11:52 47.43733 19.25960 457 ft 10 kts 290°
2026-05-07 11:52 47.43708 19.25875 457 ft 10 kts 223°
2026-05-07 11:53 47.43655 19.25804 456 ft 11 kts 222°
2026-05-07 11:53 47.43597 19.25726 457 ft 11 kts 222°
2026-05-07 11:53 47.43538 19.25647 457 ft 12 kts 222°
2026-05-07 11:53 47.43474 19.25563 457 ft 13 kts 222°
2026-05-07 11:54 47.43408 19.25474 457 ft 13 kts 222°
2026-05-07 11:54 47.43340 19.25382 457 ft 13 kts 222°
2026-05-07 11:54 47.43270 19.25287 455 ft 14 kts 222°
2026-05-07 11:54 47.43198 19.25190 457 ft 14 kts 222°
2026-05-07 11:55 47.43124 19.25090 457 ft 14 kts 223°
2026-05-07 11:55 47.43073 19.25021 457 ft 3 kts 223°
2026-05-07 11:55 47.43070 19.24992 456 ft 3 kts 281°
2026-05-07 11:55 47.43084 19.24970 457 ft 5 kts 317°
2026-05-07 11:56 47.43247 19.24713 456 ft 70 kts 312°
2026-05-07 11:56 47.43722 19.23930 455 ft 131 kts 313°
2026-05-07 11:56 47.44451 19.22777 621 ft 163 kts 311°
2026-05-07 11:56 47.45219 19.21609 1370 ft 158 kts 308°
2026-05-07 11:57 47.45993 19.20435 2065 ft 161 kts 309°
2026-05-07 11:57 47.46799 19.19211 2401 ft 176 kts 308°
2026-05-07 11:57 47.47647 19.17795 2687 ft 191 kts 307°
2026-05-07 11:57 47.48562 19.16251 3009 ft 207 kts 307°
2026-05-07 11:58 47.49407 19.14489 3378 ft 216 kts 291°
2026-05-07 11:58 47.49745 19.12233 3536 ft 239 kts 268°
2026-05-07 11:58 47.49464 19.09745 4056 ft 250 kts 249°
2026-05-07 11:58 47.48578 19.07534 4784 ft 254 kts 227°
2026-05-07 11:59 47.47146 19.06010 5501 ft 258 kts 204°
2026-05-07 11:59 47.45438 19.05150 6258 ft 261 kts 199°
2026-05-07 11:59 47.43702 19.04334 6989 ft 263 kts 199°
2026-05-07 11:59 47.41955 19.03520 7722 ft 264 kts 199°
2026-05-07 12:00 47.40203 19.02702 8481 ft 265 kts 199°
2026-05-07 12:00 47.38442 19.01877 9232 ft 266 kts 199°
2026-05-07 12:00 47.36682 19.01022 9969 ft 267 kts 203°
2026-05-07 12:00 47.35091 18.99563 10391 ft 280 kts 223°
2026-05-07 12:01 47.33990 18.97083 10527 ft 305 kts 249°
2026-05-07 12:01 47.33633 18.93877 10659 ft 329 kts 261°
2026-05-07 12:01 47.33414 18.90420 10799 ft 348 kts 262°
2026-05-07 12:01 47.33200 18.86818 11255 ft 355 kts 262°
2026-05-07 12:02 47.32984 18.83167 11856 ft 359 kts 262°
2026-05-07 12:02 47.32760 18.79489 12461 ft 362 kts 262°
2026-05-07 12:02 47.32528 18.75773 13073 ft 366 kts 262°
2026-05-07 12:02 47.32285 18.72025 13688 ft 369 kts 262°
2026-05-07 12:03 47.32036 18.68299 14236 ft 372 kts 261°
2026-05-07 12:03 47.31776 18.64445 14781 ft 375 kts 261°
2026-05-07 12:03 47.31519 18.60650 15321 ft 378 kts 261°
2026-05-07 12:03 47.31255 18.56726 15891 ft 382 kts 261°
2026-05-07 12:04 47.30993 18.52825 16444 ft 385 kts 261°
2026-05-07 12:04 47.30730 18.48883 16980 ft 388 kts 261°
2026-05-07 12:04 47.30465 18.44953 17522 ft 392 kts 261°
2026-05-07 12:04 47.30187 18.40895 18072 ft 395 kts 261°
2026-05-07 12:05 47.29909 18.36858 18558 ft 398 kts 261°
2026-05-07 12:05 47.29627 18.32794 19021 ft 400 kts 261°
2026-05-07 12:05 47.29344 18.28712 19491 ft 402 kts 261°
2026-05-07 12:05 47.29058 18.24602 19956 ft 404 kts 261°
2026-05-07 12:06 47.28774 18.20535 20411 ft 406 kts 261°
2026-05-07 12:06 47.28478 18.16338 20865 ft 407 kts 261°
2026-05-07 12:06 47.28185 18.12229 21308 ft 409 kts 261°
2026-05-07 12:06 47.27885 18.07992 21750 ft 411 kts 261°
2026-05-07 12:07 47.27592 18.03855 22182 ft 413 kts 261°
2026-05-07 12:07 47.27287 17.99636 22598 ft 415 kts 260°
2026-05-07 12:07 47.26979 17.95405 23013 ft 417 kts 260°
2026-05-07 12:07 47.26669 17.91154 23425 ft 419 kts 260°
2026-05-07 12:08 47.26356 17.86887 23809 ft 420 kts 260°
2026-05-07 12:08 47.26041 17.82599 24182 ft 422 kts 260°
2026-05-07 12:08 47.25725 17.78307 24561 ft 422 kts 260°
2026-05-07 12:08 47.25406 17.73998 24936 ft 423 kts 260°
2026-05-07 12:09 47.25085 17.69686 25301 ft 425 kts 260°
2026-05-07 12:09 47.24764 17.65363 25642 ft 426 kts 259°
2026-05-07 12:09 47.24441 17.61018 25991 ft 427 kts 259°
2026-05-07 12:09 47.24113 17.56672 26358 ft 428 kts 259°
2026-05-07 12:10 47.23780 17.52311 26720 ft 429 kts 259°
2026-05-07 12:10 47.23444 17.47942 27070 ft 431 kts 259°
2026-05-07 12:10 47.23106 17.43556 27429 ft 432 kts 259°
2026-05-07 12:10 47.22766 17.39164 27817 ft 432 kts 259°
2026-05-07 12:11 47.22427 17.34796 28312 ft 429 kts 259°
2026-05-07 12:11 47.22088 17.30450 28816 ft 426 kts 259°
2026-05-07 12:11 47.21749 17.26130 29330 ft 424 kts 259°
2026-05-07 12:11 47.21411 17.21842 29832 ft 421 kts 259°
2026-05-07 12:12 47.21071 17.17582 30286 ft 418 kts 258°
2026-05-07 12:12 47.20732 17.13369 30681 ft 416 kts 258°
2026-05-07 12:12 47.20391 17.09128 31066 ft 415 kts 258°
2026-05-07 12:12 47.20053 17.04922 31459 ft 413 kts 258°
2026-05-07 12:13 47.19717 17.00739 31828 ft 412 kts 258°
2026-05-07 12:13 47.19381 16.96565 32198 ft 410 kts 258°
2026-05-07 12:13 47.19044 16.92411 32575 ft 409 kts 257°
2026-05-07 12:13 47.18820 16.89661 32806 ft 408 kts 257°
2026-05-07 12:14 47.18482 16.85528 33166 ft 407 kts 257°
2026-05-07 12:14 47.18140 16.81404 33514 ft 406 kts 257°
2026-05-07 12:14 47.17799 16.77294 33857 ft 405 kts 257°
2026-05-07 12:14 47.17455 16.73190 33987 ft 404 kts 257°
2026-05-07 12:15 47.17111 16.69091 33997 ft 404 kts 257°
2026-05-07 12:15 47.16411 16.60912 33996 ft 404 kts 257°
2026-05-07 12:16 47.15708 16.52724 33991 ft 404 kts 257°
2026-05-07 12:16 47.15008 16.44525 33991 ft 404 kts 257°
2026-05-07 12:17 47.14092 16.36418 33983 ft 398 kts 248°
2026-05-07 12:17 47.11736 16.29191 33985 ft 391 kts 234°
2026-05-07 12:18 47.08840 16.22427 33981 ft 392 kts 235°
2026-05-07 12:18 47.05947 16.15640 33982 ft 392 kts 235°
2026-05-07 12:19 47.03045 16.08867 33977 ft 392 kts 234°
2026-05-07 12:19 47.00133 16.02104 33979 ft 393 kts 234°
2026-05-07 12:20 46.97216 15.95338 33977 ft 393 kts 234°
2026-05-07 12:20 46.94298 15.88578 33969 ft 393 kts 234°
2026-05-07 12:21 46.91372 15.81817 33961 ft 393 kts 235°
2026-05-07 12:21 46.88465 15.75112 33960 ft 393 kts 235°
2026-05-07 12:22 46.85532 15.68371 33955 ft 393 kts 234°
2026-05-07 12:22 46.82591 15.61635 33953 ft 393 kts 235°
2026-05-07 12:23 46.79649 15.54912 33952 ft 393 kts 235°
2026-05-07 12:23 46.76705 15.48195 33950 ft 393 kts 235°
2026-05-07 12:24 46.73761 15.41483 33950 ft 393 kts 235°
2026-05-07 12:24 46.70811 15.34788 33951 ft 392 kts 235°
2026-05-07 12:25 46.67850 15.28087 33952 ft 393 kts 234°
2026-05-07 12:25 46.64901 15.21456 33946 ft 392 kts 233°
2026-05-07 12:26 46.61451 15.15343 33951 ft 391 kts 228°
2026-05-07 12:26 46.57936 15.09300 33953 ft 391 kts 228°
2026-05-07 12:27 46.54414 15.03270 33954 ft 391 kts 229°
2026-05-07 12:27 46.50884 14.97233 33954 ft 392 kts 229°
2026-05-07 12:28 46.47354 14.91191 33959 ft 392 kts 229°
2026-05-07 12:28 46.43824 14.85167 33962 ft 392 kts 229°
2026-05-07 12:29 46.40279 14.79150 33968 ft 393 kts 229°
2026-05-07 12:29 46.36748 14.73173 33974 ft 393 kts 229°
2026-05-07 12:30 46.33204 14.67177 33973 ft 392 kts 229°
2026-05-07 12:30 46.29656 14.61163 33978 ft 393 kts 229°
2026-05-07 12:31 46.26092 14.55167 33974 ft 393 kts 229°
2026-05-07 12:31 46.22523 14.49176 33973 ft 393 kts 229°
2026-05-07 12:32 46.18941 14.43181 33972 ft 394 kts 229°
2026-05-07 12:32 46.15365 14.37195 33975 ft 394 kts 229°
2026-05-07 12:33 46.10006 14.28233 33983 ft 394 kts 229°
2026-05-07 12:33 46.06424 14.22261 33987 ft 394 kts 229°
2026-05-07 12:34 46.02829 14.16296 33993 ft 395 kts 229°
2026-05-07 12:34 45.99233 14.10337 34004 ft 395 kts 229°
2026-05-07 12:35 45.95624 14.04364 34009 ft 395 kts 229°
2026-05-07 12:35 45.92015 13.98392 34010 ft 396 kts 229°
2026-05-07 12:36 45.88390 13.92430 34014 ft 396 kts 229°
2026-05-07 12:36 45.84762 13.86470 34013 ft 397 kts 229°
2026-05-07 12:37 45.81152 13.80552 34012 ft 397 kts 229°
2026-05-07 12:37 45.77515 13.74603 34010 ft 397 kts 230°
2026-05-07 12:38 45.73873 13.68660 34005 ft 397 kts 230°
2026-05-07 12:38 45.70233 13.62728 34006 ft 397 kts 230°
2026-05-07 12:39 45.66593 13.56800 34007 ft 397 kts 230°
2026-05-07 12:39 45.62943 13.50880 34007 ft 397 kts 230°
2026-05-07 12:40 45.59287 13.44968 34011 ft 398 kts 230°
2026-05-07 12:40 45.57453 13.42002 34248 ft 398 kts 230°
2026-05-07 12:40 45.55624 13.39046 34498 ft 398 kts 230°
2026-05-07 12:41 45.53789 13.36083 34720 ft 398 kts 230°
2026-05-07 12:41 45.51950 13.33120 34921 ft 399 kts 230°
2026-05-07 12:41 45.48254 13.27177 35008 ft 401 kts 230°
2026-05-07 12:42 45.44467 13.21345 35010 ft 401 kts 228°
2026-05-07 12:42 45.40618 13.15585 35008 ft 401 kts 228°
2026-05-07 12:43 45.36450 13.10304 35010 ft 404 kts 220°
2026-05-07 12:43 45.31955 13.05524 35010 ft 404 kts 220°
2026-05-07 12:44 45.27458 13.00731 35012 ft 404 kts 220°
2026-05-07 12:44 45.22951 12.95940 35019 ft 405 kts 220°
2026-05-07 12:45 45.18469 12.91192 35017 ft 405 kts 220°
2026-05-07 12:45 45.13954 12.86417 35021 ft 405 kts 220°
2026-05-07 12:46 45.09433 12.81655 35017 ft 405 kts 220°
2026-05-07 12:46 45.04912 12.76903 35015 ft 405 kts 220°
2026-05-07 12:47 45.00396 12.72149 35016 ft 405 kts 220°
2026-05-07 12:47 44.95880 12.67402 35019 ft 404 kts 220°
2026-05-07 12:48 44.91362 12.62672 35017 ft 404 kts 220°
2026-05-07 12:48 44.86842 12.57956 35022 ft 404 kts 220°
2026-05-07 12:49 44.82322 12.53251 35019 ft 404 kts 221°
2026-05-07 12:49 44.77864 12.48457 35016 ft 402 kts 224°
2026-05-07 12:50 44.73674 12.43284 35011 ft 400 kts 226°
2026-05-07 12:50 44.69562 12.38015 35010 ft 400 kts 226°
2026-05-07 12:51 44.65406 12.32816 35007 ft 400 kts 225°
2026-05-07 12:51 44.61213 12.27676 35002 ft 400 kts 225°
2026-05-07 12:52 44.57041 12.22581 35002 ft 400 kts 225°
2026-05-07 12:52 44.52848 12.17460 35006 ft 400 kts 225°
2026-05-07 12:53 44.48656 12.12337 35002 ft 400 kts 225°
2026-05-07 12:53 44.44460 12.07222 35003 ft 400 kts 225°
2026-05-07 12:54 44.40252 12.02111 35003 ft 400 kts 225°
2026-05-07 12:54 44.36044 11.97009 35003 ft 400 kts 225°
2026-05-07 12:55 44.31837 11.91909 35001 ft 401 kts 225°
2026-05-07 12:55 44.27622 11.86809 35004 ft 401 kts 225°
2026-05-07 12:56 44.23400 11.81710 35000 ft 401 kts 225°
2026-05-07 12:56 44.21464 11.78957 35005 ft 396 kts 237°
2026-05-07 12:56 44.20129 11.75632 35002 ft 393 kts 246°
2026-05-07 12:57 44.17846 11.68700 34995 ft 394 kts 246°
2026-05-07 12:57 44.15569 11.61770 34989 ft 393 kts 246°
2026-05-07 12:58 44.13290 11.54844 34990 ft 394 kts 246°
2026-05-07 12:58 44.11009 11.47950 34990 ft 394 kts 246°
2026-05-07 12:59 44.08706 11.41025 34990 ft 394 kts 246°
2026-05-07 12:59 44.06400 11.34104 34997 ft 395 kts 246°
2026-05-07 13:00 44.04457 11.28295 34997 ft 396 kts 246°
2026-05-07 13:00 44.02136 11.21355 35000 ft 396 kts 246°
2026-05-07 13:01 43.99818 11.14420 35005 ft 396 kts 246°
2026-05-07 13:01 43.97483 11.07485 35001 ft 396 kts 246°
2026-05-07 13:02 43.95148 11.00548 35006 ft 397 kts 246°
2026-05-07 13:02 43.93973 10.97070 34848 ft 405 kts 246°
2026-05-07 13:02 43.92766 10.93503 34576 ft 409 kts 246°
2026-05-07 13:03 43.91553 10.89917 34322 ft 411 kts 246°
2026-05-07 13:03 43.90341 10.86339 34071 ft 410 kts 246°
2026-05-07 13:03 43.89125 10.82763 33788 ft 409 kts 246°
2026-05-07 13:03 43.87926 10.79237 33668 ft 410 kts 246°
2026-05-07 13:04 43.86707 10.75662 33801 ft 411 kts 246°
2026-05-07 13:04 43.85467 10.72034 33987 ft 412 kts 245°
2026-05-07 13:04 43.84257 10.68495 34109 ft 412 kts 246°
2026-05-07 13:04 43.83034 10.64909 34157 ft 412 kts 246°
2026-05-07 13:05 43.80588 10.57736 34201 ft 412 kts 245°
2026-05-07 13:05 43.78124 10.50576 34140 ft 411 kts 245°
2026-05-07 13:06 43.75657 10.43421 34149 ft 412 kts 245°
2026-05-07 13:06 43.73186 10.36281 34060 ft 409 kts 245°
2026-05-07 13:07 43.71963 10.32751 33635 ft 408 kts 245°
2026-05-07 13:07 43.70734 10.29197 33283 ft 410 kts 245°
2026-05-07 13:07 43.69503 10.25638 32934 ft 412 kts 245°
2026-05-07 13:07 43.68265 10.22058 32592 ft 413 kts 245°
2026-05-07 13:08 43.67022 10.18472 32249 ft 414 kts 245°
2026-05-07 13:08 43.65772 10.14880 31915 ft 416 kts 245°
2026-05-07 13:08 43.64515 10.11280 31588 ft 417 kts 245°
2026-05-07 13:08 43.63251 10.07667 31255 ft 418 kts 245°
2026-05-07 13:09 43.61983 10.04045 30923 ft 420 kts 245°
2026-05-07 13:09 43.60709 10.00409 30603 ft 421 kts 245°
2026-05-07 13:09 43.59429 9.96761 30287 ft 423 kts 245°
2026-05-07 13:09 43.58147 9.93103 29947 ft 424 kts 245°
2026-05-07 13:10 43.56860 9.89438 29566 ft 426 kts 245°
2026-05-07 13:10 43.55567 9.85759 29205 ft 427 kts 245°
2026-05-07 13:10 43.54266 9.82067 28845 ft 429 kts 245°
2026-05-07 13:10 43.52956 9.78360 28483 ft 430 kts 245°
2026-05-07 13:11 43.51644 9.74643 28134 ft 432 kts 245°
2026-05-07 13:11 43.50326 9.70917 27785 ft 433 kts 245°
2026-05-07 13:11 43.49002 9.67178 27440 ft 435 kts 245°
2026-05-07 13:11 43.47673 9.63428 27090 ft 437 kts 245°
2026-05-07 13:12 43.46337 9.59668 26761 ft 438 kts 245°
2026-05-07 13:12 43.44992 9.55888 26422 ft 440 kts 245°
2026-05-07 13:12 43.43648 9.52110 26093 ft 440 kts 244°
2026-05-07 13:12 43.42321 9.48389 25767 ft 439 kts 244°
2026-05-07 13:13 43.40978 9.44632 25454 ft 437 kts 244°
2026-05-07 13:13 43.39636 9.40885 25137 ft 436 kts 244°
2026-05-07 13:13 43.38296 9.37148 24824 ft 435 kts 244°
2026-05-07 13:13 43.36958 9.33421 24507 ft 434 kts 244°
2026-05-07 13:14 43.35627 9.29716 24209 ft 433 kts 244°
2026-05-07 13:14 43.34293 9.26013 23905 ft 431 kts 244°
2026-05-07 13:14 43.32966 9.22333 23604 ft 430 kts 244°
2026-05-07 13:14 43.31641 9.18651 23246 ft 429 kts 244°
2026-05-07 13:15 43.30322 9.14985 22892 ft 428 kts 244°
2026-05-07 13:15 43.29004 9.11330 22543 ft 427 kts 244°
2026-05-07 13:15 43.27684 9.07683 22191 ft 426 kts 244°
2026-05-07 13:15 43.26364 9.04051 21846 ft 425 kts 244°
2026-05-07 13:16 43.25085 9.00392 21500 ft 424 kts 249°
2026-05-07 13:16 43.24304 8.96510 21158 ft 423 kts 261°
2026-05-07 13:16 43.24178 8.92492 20834 ft 424 kts 273°
2026-05-07 13:16 43.24696 8.88511 20507 ft 425 kts 285°
2026-05-07 13:17 43.25798 8.84741 20186 ft 427 kts 292°
2026-05-07 13:17 43.27032 8.81036 19861 ft 426 kts 292°
2026-05-07 13:17 43.28261 8.77349 19549 ft 425 kts 292°
2026-05-07 13:17 43.29485 8.73663 19237 ft 424 kts 292°
2026-05-07 13:18 43.30700 8.69983 18931 ft 423 kts 292°
2026-05-07 13:18 43.31911 8.66310 18631 ft 422 kts 292°
2026-05-07 13:18 43.33053 8.62608 18309 ft 420 kts 287°
2026-05-07 13:18 43.33722 8.58725 17964 ft 417 kts 276°
2026-05-07 13:19 43.33833 8.54815 17612 ft 403 kts 266°
2026-05-07 13:19 43.33537 8.51045 17266 ft 392 kts 263°
2026-05-07 13:19 43.33225 8.47366 16996 ft 383 kts 263°
2026-05-07 13:19 43.32921 8.43739 16997 ft 382 kts 263°
2026-05-07 13:20 43.32617 8.40102 16974 ft 387 kts 263°
2026-05-07 13:20 43.32309 8.36396 16870 ft 393 kts 263°
2026-05-07 13:20 43.31997 8.32662 16769 ft 394 kts 263°
2026-05-07 13:20 43.31684 8.28928 16664 ft 394 kts 263°
2026-05-07 13:21 43.31369 8.25197 16562 ft 393 kts 263°
2026-05-07 13:21 43.31052 8.21517 16462 ft 393 kts 263°
2026-05-07 13:21 43.30729 8.17793 16358 ft 393 kts 263°
2026-05-07 13:21 43.30491 8.14015 16245 ft 393 kts 270°
2026-05-07 13:22 43.30769 8.10340 16151 ft 393 kts 281°
2026-05-07 13:22 43.31624 8.06727 16053 ft 394 kts 293°
2026-05-07 13:22 43.32910 8.03449 15949 ft 395 kts 298°
2026-05-07 13:22 43.34272 8.00174 15850 ft 395 kts 298°
2026-05-07 13:23 43.35630 7.96896 15658 ft 394 kts 298°
2026-05-07 13:23 43.36979 7.93633 15299 ft 391 kts 298°
2026-05-07 13:23 43.38313 7.90398 14734 ft 388 kts 298°
2026-05-07 13:23 43.39654 7.87136 14144 ft 385 kts 298°
2026-05-07 13:24 43.40944 7.83985 13548 ft 383 kts 298°
2026-05-07 13:24 43.42243 7.80807 12923 ft 379 kts 297°
2026-05-07 13:24 43.43141 7.77444 12304 ft 373 kts 279°
2026-05-07 13:24 43.43118 7.73925 11872 ft 369 kts 258°
2026-05-07 13:25 43.42467 7.70504 11520 ft 370 kts 253°
2026-05-07 13:25 43.41751 7.67113 11180 ft 369 kts 253°
2026-05-07 13:25 43.41031 7.63737 10826 ft 367 kts 253°
2026-05-07 13:25 43.40312 7.60377 10484 ft 365 kts 253°
2026-05-07 13:26 43.39601 7.57062 10145 ft 357 kts 253°
2026-05-07 13:26 43.38906 7.53839 9800 ft 347 kts 253°
2026-05-07 13:26 43.38230 7.50707 9470 ft 337 kts 254°
2026-05-07 13:26 43.37712 7.47621 9180 ft 327 kts 258°
2026-05-07 13:27 43.37260 7.44603 8890 ft 318 kts 258°
2026-05-07 13:27 43.36822 7.41664 8608 ft 310 kts 258°
2026-05-07 13:27 43.36395 7.38803 8327 ft 299 kts 258°
2026-05-07 13:27 43.35987 7.36068 8046 ft 285 kts 258°
2026-05-07 13:28 43.35596 7.33451 7771 ft 274 kts 258°
2026-05-07 13:28 43.35222 7.30936 7501 ft 266 kts 258°
2026-05-07 13:28 43.34857 7.28487 7365 ft 257 kts 258°
2026-05-07 13:28 43.34566 7.26098 7140 ft 252 kts 263°
2026-05-07 13:29 43.34353 7.23709 6894 ft 251 kts 263°
2026-05-07 13:29 43.34151 7.21329 6651 ft 251 kts 263°
2026-05-07 13:29 43.33951 7.18951 6408 ft 250 kts 263°
2026-05-07 13:29 43.33753 7.16604 6157 ft 245 kts 263°
2026-05-07 13:30 43.33560 7.14296 5899 ft 241 kts 265°
2026-05-07 13:30 43.33637 7.12018 5652 ft 238 kts 278°
2026-05-07 13:30 43.33921 7.09790 5410 ft 234 kts 281°
2026-05-07 13:30 43.34254 7.07641 5171 ft 227 kts 282°
2026-05-07 13:31 43.34615 7.05560 4912 ft 221 kts 287°
2026-05-07 13:31 43.35167 7.03607 4656 ft 218 kts 294°
2026-05-07 13:31 43.35850 7.01787 4406 ft 217 kts 301°
2026-05-07 13:31 43.36729 7.00072 4148 ft 217 kts 310°
2026-05-07 13:32 43.37800 6.98659 4015 ft 217 kts 322°
2026-05-07 13:32 43.39098 6.97536 4004 ft 219 kts 332°
2026-05-07 13:32 43.40506 6.96742 4004 ft 219 kts 341°
2026-05-07 13:32 43.41966 6.96209 4007 ft 220 kts 348°
2026-05-07 13:33 43.43487 6.95959 4007 ft 221 kts 355°
2026-05-07 13:33 43.45020 6.95789 4008 ft 221 kts 354°
2026-05-07 13:33 43.46548 6.95944 4007 ft 222 kts 15°
2026-05-07 13:33 43.47934 6.96860 4009 ft 223 kts 37°
2026-05-07 13:34 43.49067 6.98329 4013 ft 224 kts 45°
2026-05-07 13:34 43.51182 7.01234 3863 ft 200 kts 44°
2026-05-07 13:34 43.52149 7.02554 3617 ft 191 kts 45°
2026-05-07 13:35 43.53078 7.03822 3386 ft 185 kts 45°
2026-05-07 13:35 43.53974 7.05046 3143 ft 179 kts 45°
2026-05-07 13:35 43.54843 7.06234 2915 ft 173 kts 46°
2026-05-07 13:35 43.55687 7.07388 2684 ft 170 kts 47°
2026-05-07 13:36 43.56524 7.08533 2464 ft 169 kts 46°
2026-05-07 13:36 43.57361 7.09678 2235 ft 169 kts 46°
2026-05-07 13:36 43.58196 7.10821 2011 ft 169 kts 46°
2026-05-07 13:36 43.59028 7.11961 1783 ft 168 kts 46°
2026-05-07 13:37 43.59860 7.13101 1550 ft 168 kts 47°
2026-05-07 13:37 43.60681 7.14227 1319 ft 166 kts 47°
2026-05-07 13:37 43.61487 7.15330 1119 ft 159 kts 48°
2026-05-07 13:37 43.62255 7.16373 860 ft 153 kts 46°
2026-05-07 13:38 43.63004 7.17386 667 ft 151 kts 47°
2026-05-07 13:38 43.63751 7.18391 514 ft 150 kts 47°
2026-05-07 13:38 43.64486 7.19409 299 ft 148 kts 48°
2026-05-07 13:38 43.65213 7.20435 66 ft 150 kts 47°
2026-05-07 13:39 43.65908 7.21398 19 ft 126 kts 47°
2026-05-07 13:39 43.66315 7.21963 23 ft 45 kts 44°
2026-05-07 13:39 43.66438 7.22119 21 ft 9 kts 25°
2026-05-07 13:39 43.66504 7.22115 19 ft 11 kts 322°
2026-05-07 13:40 43.66553 7.22025 18 ft 10 kts 287°
2026-05-07 13:40 43.66528 7.21939 18 ft 10 kts 232°
2026-05-07 13:40 43.66480 7.21868 20 ft 10 kts 226°
2026-05-07 13:40 43.66429 7.21797 20 ft 11 kts 226°
2026-05-07 13:41 43.66356 7.21699 17 ft 18 kts 222°
2026-05-07 13:41 43.66265 7.21578 17 ft 17 kts 225°
2026-05-07 13:41 43.66174 7.21448 15 ft 20 kts 226°
2026-05-07 13:41 43.66076 7.21311 16 ft 20 kts 225°
2026-05-07 13:42 43.65977 7.21180 17 ft 18 kts 224°
2026-05-07 13:42 43.65890 7.21058 20 ft 18 kts 225°
2026-05-07 13:42 43.65816 7.20957 19 ft 10 kts 224°
2026-05-07 13:42 43.65797 7.20899 19 ft 6 kts 277°
2026-05-07 13:43 43.65825 7.20864 20 ft 6 kts 342°
2026-05-07 13:43 43.65870 7.20851 20 ft 7 kts 350°
2026-05-07 13:43 43.65899 7.20806 20 ft 7 kts 281°
2026-05-07 13:43 43.65916 7.20733 21 ft 6 kts 293°
2026-05-07 13:44 43.65924 7.20705 21 ft 2 kts 291°
2026-05-07 13:44 43.65928 7.20692 21 ft 0 kts 292°